Date,TemperatureHighF,TemperatureAvgF,TemperatureLowF,DewpointHighF,DewpointAvgF,DewpointLowF,HumidityHigh,HumidityAvg,HumidityLow,PressureMaxIn,PressureMinIn,WindSpeedMaxMPH,WindSpeedAvgMPH,GustSpeedMaxMPH,PrecipitationSumIn
2013-1-1,43,40,32,42,38,29,97,94,89,30.23,30.03,3,0,7,0.64
2013-1-2,36,30,24,29,24,21,90,78,58,30.30,30.21,2,0,4,0.01
2013-1-3,48,33,22,30,26,20,96,75,42,30.45,30.29,1,0,6,0.00
2013-1-4,51,34,24,32,27,23,96,78,41,30.53,30.41,2,0,5,0.00
2013-1-5,45,37,27,37,31,26,94,80,61,30.43,30.29,1,0,6,0.00
2013-1-6,53,40,29,38,34,26,97,81,47,30.41,30.25,2,0,8,0.00
2013-1-7,55,35,23,31,26,21,96,75,32,30.46,30.24,5,0,9,0.00
2013-1-8,59,44,29,44,34,26,91,72,46,30.30,30.18,2,0,5,0.00
2013-1-9,56,54,53,54,52,45,97,90,72,30.33,30.23,4,2,9,0.95
2013-1-10,68,62,55,64,60,54,98,94,85,30.31,29.91,5,2,16,1.42
2013-1-11,69,62,54,62,54,49,97,78,49,30.07,29.95,4,1,15,0.14
2013-1-12,72,68,63,68,65,61,97,91,82,29.98,29.77,3,1,13,0.26
2013-1-13,70,44,31,65,42,28,95,92,82,30.29,29.77,6,1,14,2.99
2013-1-14,31,28,27,28,25,23,91,87,78,30.42,30.27,6,1,13,0.03
2013-1-15,31,29,26,30,27,23,95,92,89,30.29,30.10,5,0,11,0.00
2013-1-16,33,32,30,31,30,28,95,93,91,30.20,30.08,0,0,2,0.00
2013-1-17,49,38,32,38,32,28,94,82,62,30.49,30.14,2,0,10,0.11
2013-1-18,58,37,24,32,27,23,97,72,30,30.60,30.37,1,0,4,0.01
2013-1-19,60,46,35,36,32,29,80,60,34,30.37,30.20,4,1,11,0.00
2013-1-20,64,46,31,38,32,27,97,63,30,30.29,30.18,5,0,10,0.00
2013-1-21,46,35,25,28,21,17,83,58,34,30.38,30.19,2,0,11,0.00
2013-1-22,42,31,23,22,18,15,90,60,36,30.46,30.34,5,1,10,0.00
2013-1-23,57,39,26,37,29,19,86,69,47,30.37,30.19,3,0,7,0.00
2013-1-24,42,39,35,38,25,19,93,58,43,30.46,30.23,8,2,16,0.00
2013-1-25,49,40,32,45,33,21,95,80,45,30.27,30.04,2,0,7,0.15
2013-1-26,57,42,30,39,33,29,97,74,42,30.36,30.27,4,1,7,0.03
2013-1-27,64,55,47,53,44,34,81,68,59,30.29,30.14,2,1,10,0.00
2013-1-28,73,64,58,61,57,53,91,79,64,30.19,30.08,4,2,14,0.01
2013-1-29,76,68,60,65,60,57,92,78,60,30.09,29.48,6,2,24,0.09
2013-1-30,70,49,35,64,42,26,96,78,59,30.05,29.50,8,2,28,1.69
2013-1-31,56,46,30,34,30,23,85,55,37,30.35,30.04,4,2,14,0.00
2013-2-1,39,30,21,23,13,8,70,51,31,30.57,30.32,3,0,8,0.00
2013-2-2,54,37,26,34,28,16,91,69,42,30.33,30.15,2,0,7,0.01
2013-2-3,56,45,35,35,31,25,90,60,31,30.21,30.12,4,1,11,0.01
2013-2-4,58,46,35,45,35,29,91,68,38,30.13,29.93,4,0,11,0.06
2013-2-5,66,50,36,50,43,35,97,80,44,30.08,29.95,2,0,6,0.06
2013-2-6,64,50,37,44,41,36,97,72,47,30.23,30.07,4,1,9,0.00
2013-2-7,70,57,43,55,48,37,93,72,55,30.07,29.89,2,0,7,0.03
2013-2-8,57,45,34,56,40,31,95,84,71,30.33,29.92,4,1,11,0.51
2013-2-9,51,41,29,41,33,27,95,75,54,30.35,30.07,6,1,11,0.01
2013-2-10,61,55,49,58,48,37,94,79,55,30.08,29.79,5,2,14,1.00
2013-2-11,62,51,45,53,35,28,88,55,29,30.22,29.97,3,0,7,0.01
2013-2-12,52,46,38,41,37,33,90,72,50,30.18,29.82,7,2,13,0.02
2013-2-13,44,41,38,42,38,36,94,89,78,30.05,29.79,1,0,7,0.08
2013-2-14,60,45,37,40,36,35,92,74,42,30.07,30.03,2,0,8,0.02
2013-2-15,57,46,35,40,33,26,92,64,34,30.22,30.07,3,0,6,0.00
2013-2-16,44,34,27,29,21,14,78,59,36,30.29,30.22,2,0,8,0.00
2013-2-17,58,43,30,30,24,20,68,50,31,30.29,30.10,4,1,11,0.00
2013-2-18,58,51,43,51,42,30,94,72,51,30.11,29.79,6,2,30,1.08
2013-2-19,51,42,31,42,29,23,87,63,35,30.29,29.96,4,1,12,1.01
2013-2-20,37,33,30,26,20,15,81,59,45,30.38,30.21,6,1,10,0.00
2013-2-21,47,39,33,45,31,22,96,75,46,30.21,29.77,5,2,13,0.74
2013-2-22,52,42,38,43,39,33,96,87,62,30.11,29.90,4,0,9,0.04
2013-2-23,56,40,29,33,30,27,94,71,38,30.09,29.97,4,0,8,0.00
2013-2-24,60,44,29,33,30,27,95,63,34,30.13,29.93,5,1,10,0.00
2013-2-25,59,52,41,53,39,27,94,62,42,29.94,29.34,7,3,17,0.46
2013-2-26,55,45,41,53,39,33,94,79,68,29.83,29.36,7,3,17,0.46
2013-2-27,41,41,40,34,33,31,75,73,71,29.86,29.83,3,2,13,0.00
2013-2-28,41,39,36,31,30,28,76,69,64,30.12,30.10,1,0,2,0.00
2013-3-1,39,36,34,31,29,27,83,76,66,30.18,30.10,2,0,5,0.00
2013-3-2,37,33,31,29,26,20,90,77,60,30.27,30.15,3,0,8,0.02
2013-3-3,51,37,21,27,23,19,94,61,30,30.26,30.09,2,0,7,0.01
2013-3-4,69,54,35,48,33,25,73,47,26,30.10,29.79,7,1,17,0.00
2013-3-5,63,51,38,57,40,23,92,67,40,30.20,29.79,6,2,18,0.40
2013-3-6,51,39,33,29,26,23,85,60,42,30.37,30.20,3,1,7,0.03
2013-3-7,57,43,31,32,30,27,89,64,37,30.42,30.30,3,1,7,0.00
2013-3-8,67,50,33,34,28,19,86,48,16,30.41,30.21,4,1,10,0.00
2013-3-9,72,60,48,39,34,29,58,38,24,30.20,29.96,3,1,10,0.00
2013-3-10,65,58,52,57,50,39,96,75,40,29.99,29.78,6,2,16,1.02
2013-3-11,53,44,40,52,37,32,95,78,69,29.96,29.85,4,2,15,1.02
2013-3-21,48,42,35,33,22,14,88,48,25,30.04,29.96,5,1,8,0.04
2013-3-22,47,42,34,44,39,31,94,91,86,30.03,29.90,4,1,8,0.42
2013-3-23,54,49,45,50,46,43,96,90,83,29.95,29.70,7,2,14,0.43
2013-3-24,51,46,37,50,41,27,97,83,64,29.97,29.55,9,3,20,0.48
2013-3-25,40,37,33,27,25,22,70,61,52,30.26,29.97,5,2,16,0.02
2013-3-26,51,39,31,30,26,23,87,62,37,30.38,30.26,3,0,12,0.00
2013-3-27,63,43,25,35,28,24,95,63,27,30.44,30.31,3,0,8,0.00
2013-3-28,71,52,34,39,34,31,94,57,25,30.38,30.24,3,0,7,0.00
2013-3-29,65,54,47,53,45,35,93,72,36,30.29,30.18,4,0,9,0.09
2013-3-30,59,54,48,57,51,-100,98,95,92,30.21,29.95,3,0,6,0.30
2013-3-31,64,57,48,59,55,46,98,93,78,29.99,29.89,3,0,7,0.06
2013-4-1,72,55,41,50,44,40,98,71,38,30.15,29.95,5,0,10,0.01
2013-4-2,53,47,40,41,33,27,91,61,41,30.28,30.12,7,2,14,0.18
2013-4-3,50,45,40,38,31,24,85,59,40,30.24,30.14,8,2,15,0.23
2013-4-4,49,45,41,46,41,30,96,89,48,30.14,29.99,3,0,9,0.42
2013-4-5,73,55,43,47,41,34,97,68,26,30.19,30.06,3,0,8,0.10
2013-4-6,77,59,42,46,41,33,96,58,22,30.13,29.95,4,1,11,0.00
2013-4-7,73,63,56,57,51,43,85,65,47,30.07,29.94,3,1,9,0.00
2013-4-8,81,69,56,60,56,51,83,66,42,30.02,29.89,3,1,12,0.00
2013-4-9,83,74,65,67,64,58,85,72,56,30.03,29.90,3,1,9,0.00
2013-4-10,86,77,71,67,65,62,83,67,48,29.98,29.71,4,1,12,0.01
2013-4-11,75,56,44,67,53,42,95,90,69,29.83,29.72,3,0,12,2.52
2013-4-12,70,54,38,48,43,37,98,72,38,30.02,29.83,4,0,13,0.01
2013-4-13,78,59,43,49,43,38,95,62,25,30.13,29.95,3,0,9,0.00
2013-4-14,70,61,52,56,52,46,88,72,53,29.95,29.78,4,1,11,0.00
2013-4-15,85,69,56,63,59,53,93,73,42,29.96,29.84,3,1,8,0.00
2013-4-16,87,77,68,71,68,63,89,76,56,30.08,29.94,3,1,8,0.00
2013-4-17,89,78,67,72,68,65,96,74,48,30.11,29.88,3,1,10,0.00
2013-4-18,82,71,47,68,62,43,93,74,50,29.89,29.62,3,1,16,1.73
2013-4-19,58,48,41,44,36,32,92,65,41,30.16,29.87,3,1,11,1.74
2013-4-20,73,54,36,45,37,32,97,61,24,30.28,30.16,2,0,9,0.00
2013-4-21,71,58,42,43,38,32,86,52,24,30.37,30.20,5,1,11,0.00
2013-4-22,79,62,43,52,46,41,95,61,33,30.23,30.04,3,0,8,0.00
2013-4-23,66,60,55,60,55,51,88,85,80,30.09,30.03,1,0,6,0.00
2013-4-24,53,45,40,41,40,38,94,83,64,30.32,30.24,1,0,3,1.08
2013-4-25,73,53,35,45,39,34,97,67,27,30.41,30.30,2,0,5,0.03
2013-4-26,69,55,47,52,46,41,89,73,37,30.44,30.24,4,1,11,0.09
2013-4-27,75,62,53,67,58,49,95,86,75,30.25,29.90,3,0,8,0.28
2013-4-28,72,62,52,60,55,49,94,79,55,30.00,29.95,2,0,6,0.06
2013-4-29,84,64,46,59,53,45,98,72,37,30.04,29.90,1,0,4,0.00
2013-4-30,86,69,51,61,55,50,97,65,34,29.99,29.91,3,0,6,0.00
2013-5-1,81,69,59,65,60,55,88,75,56,30.08,29.96,3,0,10,0.00
2013-5-2,71,65,62,63,61,58,96,87,68,30.13,30.02,2,0,4,0.22
2013-5-3,63,50,38,62,48,36,97,94,90,30.02,29.91,2,0,9,1.71
2013-5-4,61,46,34,45,40,33,98,81,48,30.00,29.90,4,0,7,0.06
2013-5-5,65,52,45,50,46,44,97,83,53,29.95,29.88,3,0,9,0.79
2013-5-6,66,58,52,57,54,50,95,87,70,29.97,29.88,1,0,5,0.03
2013-5-7,78,64,50,61,56,49,98,78,47,30.04,29.96,3,0,6,0.01
2013-5-8,86,69,51,64,57,50,98,70,38,30.10,30.02,1,0,5,0.00
2013-5-9,83,70,56,65,60,55,97,74,47,30.10,29.98,3,0,9,0.00
2013-5-10,75,66,63,70,62,-100,97,91,77,29.99,29.89,2,0,7,1.61
2013-5-11,76,65,58,64,57,-100,97,79,50,30.09,29.95,2,0,5,0.25
2013-5-12,72,60,47,56,40,31,91,53,25,30.25,30.09,3,0,8,0.00
2013-5-13,80,62,43,53,46,41,96,63,32,30.29,30.15,2,0,6,0.00
2013-5-14,90,73,57,60,55,50,82,55,31,30.16,30.04,3,1,12,0.00
2013-5-15,87,76,67,58,56,54,65,51,32,30.09,29.98,3,0,11,0.00
2013-5-16,80,66,64,66,40,-100,93,72,55,30.03,29.93,1,0,5,0.01
2013-5-17,83,70,66,70,61,-100,95,83,59,29.97,29.91,4,0,10,0.15
2013-5-18,88,75,64,75,70,63,97,85,65,30.01,29.93,1,0,7,0.03
2013-5-19,91,80,72,73,70,66,94,72,45,30.00,29.89,2,0,11,0.00
2013-5-20,90,81,72,72,70,69,92,72,54,29.98,29.85,2,1,10,0.00
2013-5-21,78,70,66,71,67,64,97,90,77,30.01,29.81,4,0,11,3.93
2013-5-22,83,70,63,67,64,61,97,81,52,29.95,29.79,3,0,10,2.74
2013-5-23,86,73,61,64,62,57,96,69,45,30.14,29.93,2,0,7,0.00
2013-5-24,77,66,56,58,52,48,88,64,36,30.32,30.14,6,2,12,0.00
2013-5-25,82,67,50,59,53,48,96,65,34,30.33,30.17,1,0,7,0.00
2013-5-26,88,72,56,61,57,53,96,63,32,30.22,30.10,2,0,6,0.00
2013-5-27,89,76,62,70,62,58,90,65,36,30.12,29.99,2,0,9,0.00
2013-5-28,91,80,71,70,64,58,83,61,35,30.07,29.98,2,0,8,0.00
2013-5-29,91,79,65,70,64,58,81,63,37,30.07,29.95,2,0,7,0.00
2013-5-30,77,75,74,68,67,66,81,76,69,30.00,29.98,1,0,4,0.00
2013-5-31,86,77,66,75,72,65,97,84,67,30.03,29.86,2,0,8,1.41
2013-6-1,84,73,68,74,70,65,96,90,70,30.02,29.86,3,0,8,0.38
2013-6-2,83,73,67,70,66,61,97,81,57,29.99,29.93,1,0,4,0.03
2013-6-3,84,71,60,66,62,59,97,75,48,30.04,29.94,4,0,8,0.00
2013-6-4,87,74,60,66,63,58,95,71,46,30.04,29.93,3,0,8,0.00
2013-6-5,89,77,67,76,69,63,91,77,59,29.97,29.82,3,0,7,0.00
2013-6-6,87,76,68,70,68,65,96,76,54,29.87,29.78,2,0,4,0.01
2013-6-7,73,73,73,67,67,67,81,81,81,29.83,29.83,0,0,0,0.00
2013-6-9,74,71,70,70,69,68,96,93,88,29.91,29.88,0,0,3,0.00
2013-6-10,95,81,68,73,68,63,98,69,35,29.95,29.88,4,1,11,0.01
2013-6-11,100,85,73,74,71,68,90,66,39,30.05,29.95,2,0,8,0.00
2013-6-12,97,88,76,77,74,71,87,65,47,30.07,29.93,3,0,10,0.00
2013-6-13,97,85,72,76,71,64,80,65,39,29.98,29.90,4,1,11,0.00
2013-6-14,88,76,65,66,62,58,95,65,39,30.07,29.96,6,1,11,0.00
2013-6-15,93,78,63,69,64,61,96,67,38,30.09,29.98,1,0,5,0.00
2013-6-16,93,79,69,74,70,67,95,75,48,30.07,29.96,1,0,6,0.00
2013-6-17,86,76,71,75,72,69,97,87,63,30.01,29.86,3,0,9,1.51
2013-6-18,86,75,69,73,70,68,98,86,60,30.00,29.85,3,0,5,1.54
2013-6-19,94,76,67,73,69,66,97,81,41,30.06,29.97,3,0,8,0.61
2013-6-20,94,78,67,74,69,65,98,78,39,30.15,30.06,2,0,5,0.62
2013-6-22,93,88,77,73,70,68,82,57,46,30.16,30.03,1,0,5,0.00
2013-6-23,94,82,71,72,69,66,91,68,44,30.13,30.03,1,0,4,0.00
2013-6-24,97,84,73,75,72,70,93,71,45,30.15,30.02,1,0,5,0.00
2013-6-25,94,84,74,76,72,68,92,70,47,30.10,29.96,2,0,8,0.00
2013-6-26,95,84,74,76,71,68,91,67,43,30.02,29.87,3,1,13,0.00
2013-6-27,102,88,77,79,74,68,81,66,44,29.94,29.83,3,1,8,0.00
2013-6-28,93,80,71,77,72,69,96,79,51,29.93,29.73,3,0,10,0.85
2013-6-29,92,80,66,70,64,58,94,62,34,29.79,29.70,3,0,11,0.02
2013-6-30,83,74,65,67,64,62,90,73,53,29.85,29.73,1,0,6,0.00
2013-7-1,84,72,66,69,65,60,94,78,54,29.95,29.83,1,0,6,0.01
2013-7-2,87,75,62,66,63,60,94,69,44,30.06,29.93,2,0,7,0.01
2013-7-3,87,74,63,68,64,62,96,75,44,30.12,30.03,2,0,5,0.03
2013-7-4,89,77,64,72,68,63,96,76,50,30.07,29.97,6,1,11,0.01
2013-7-5,87,74,65,73,69,63,96,83,58,30.09,29.98,4,1,8,0.89
2013-7-6,92,77,65,73,69,63,96,79,49,30.09,29.98,1,0,5,0.01
2013-7-7,91,81,70,75,72,68,96,76,53,30.12,30.01,2,0,6,0.00
2013-7-8,94,80,72,77,72,-100,96,80,51,30.17,30.08,2,0,5,0.00
2013-7-9,97,85,74,77,73,69,95,70,42,30.15,30.02,3,0,6,0.00
2013-7-10,99,85,78,77,74,72,85,71,44,30.06,29.89,1,0,4,0.00
2013-7-11,97,84,75,78,72,64,89,68,45,29.98,29.91,3,0,7,0.00
2013-7-12,90,78,66,67,63,60,82,62,42,30.04,29.96,4,1,12,0.00
2013-7-13,90,75,62,65,62,59,92,66,39,30.05,29.97,5,1,11,0.00
2013-7-14,89,77,66,72,69,63,92,78,54,30.10,29.98,5,1,15,0.00
2013-7-15,92,80,72,78,73,70,95,81,56,30.21,30.09,4,0,9,0.07
2013-7-16,93,82,72,75,72,70,96,74,49,30.28,30.19,6,0,9,0.07
2013-7-17,98,84,71,76,73,69,96,71,43,30.32,30.17,3,0,8,0.00
2013-7-18,94,79,72,80,74,71,97,87,57,30.21,30.04,4,0,8,0.38
2013-7-19,94,80,71,76,72,70,98,80,51,30.10,29.96,2,0,5,0.07
2013-7-20,95,82,72,76,71,-100,95,72,48,29.99,29.86,2,0,9,0.00
2013-7-21,94,84,74,77,72,69,93,70,44,29.98,29.89,3,0,12,0.00
2013-7-22,88,78,69,78,73,67,97,83,60,29.98,29.88,4,0,10,3.23
2013-7-23,93,80,70,77,74,68,96,84,57,30.02,29.85,3,0,7,0.34
2013-7-24,88,80,74,77,74,69,94,82,61,29.98,29.87,1,0,4,0.08
2013-7-25,87,75,64,70,64,62,94,72,47,30.09,29.98,3,0,5,0.01
2013-7-26,87,74,62,68,65,61,97,77,49,30.09,29.98,1,0,3,0.00
2013-7-27,90,77,70,71,68,65,93,75,50,30.02,29.91,2,0,5,0.00
2013-7-28,83,73,67,68,64,61,89,76,53,30.09,29.97,4,0,6,0.00
2013-7-29,89,76,65,70,66,62,92,72,50,30.16,30.07,4,0,7,0.00
2013-7-30,86,78,71,75,70,66,88,78,63,30.15,30.03,1,0,8,0.01
2013-7-31,92,77,73,78,73,71,97,87,60,30.08,29.94,3,0,14,0.66
2013-8-1,91,77,71,75,71,69,97,84,57,30.06,29.99,2,0,6,0.01
2013-8-2,93,84,70,72,70,68,95,64,45,30.06,29.97,1,0,4,0.00
2013-8-3,84,77,72,76,72,69,95,86,76,30.09,29.96,2,0,7,0.03
2013-8-4,92,80,69,77,72,68,98,80,54,30.13,30.05,4,0,6,0.01
2013-8-5,83,76,70,76,72,68,96,89,74,30.08,29.93,1,0,4,0.76
2013-8-6,86,79,74,78,75,72,97,87,73,29.98,29.89,4,0,9,0.04
2013-8-7,95,83,74,79,76,72,95,80,54,29.97,29.88,2,0,6,0.00
2013-8-8,97,86,77,79,77,75,96,77,49,29.98,29.88,1,0,4,0.00
2013-8-9,99,86,75,79,76,72,95,73,45,30.03,29.94,2,0,6,0.00
2013-8-10,94,82,75,77,74,72,95,80,56,30.15,30.02,2,0,4,0.00
2013-8-11,91,78,74,78,74,72,97,90,64,30.15,30.06,2,0,5,1.03
2013-8-12,94,81,72,79,75,70,97,83,57,30.08,29.95,3,0,9,0.09
2013-8-13,87,76,70,77,70,-100,98,86,65,30.03,29.94,2,0,5,0.09
2013-8-14,81,72,67,69,61,-100,88,70,50,30.10,29.98,4,1,10,0.00
2013-8-15,85,65,57,61,42,-100,92,63,44,30.10,30.02,2,0,6,0.00
2013-8-16,85,70,60,69,61,-100,94,79,55,30.07,30.01,4,0,8,0.00
2013-8-17,82,72,66,72,66,-100,96,85,68,30.11,30.03,2,0,6,0.01
2013-8-18,85,74,65,71,68,64,97,84,60,30.15,30.05,3,0,5,0.01
2013-8-19,88,72,65,72,58,-100,98,81,57,30.12,30.02,4,0,6,0.00
2013-8-20,91,77,68,75,70,-100,97,82,52,30.11,30.03,3,0,6,0.00
2013-8-21,96,81,70,77,72,69,98,79,42,30.16,30.06,2,0,5,0.00
2013-8-22,95,83,72,77,73,70,97,76,52,30.15,30.02,2,0,5,0.00
2013-8-23,95,82,70,77,72,69,97,75,47,30.09,30.00,5,0,8,0.00
2013-8-24,93,81,71,77,72,-100,96,78,53,30.16,30.05,5,1,8,0.03
2013-8-25,91,80,73,76,73,71,95,82,57,30.28,30.16,4,0,6,0.03
2013-8-26,92,79,69,72,69,67,98,75,48,30.28,30.14,2,0,6,0.00
2013-8-27,93,76,66,68,66,64,96,74,43,30.17,30.09,1,0,5,0.00
2013-8-28,96,88,74,71,68,64,89,54,37,30.11,30.03,1,0,5,0.00
2013-8-29,99,82,69,74,70,68,97,71,41,30.10,29.99,2,0,5,0.00
2013-8-30,100,84,72,75,72,70,97,72,39,30.04,29.91,2,0,4,0.00
2013-8-31,101,84,72,74,70,-100,94,67,40,29.94,29.83,3,0,8,0.00
2013-9-1,97,81,74,75,72,70,91,76,46,29.93,29.83,7,0,15,0.08
2013-9-2,93,81,74,76,74,72,95,81,53,29.95,29.84,2,0,10,0.08
2013-9-3,92,78,68,73,67,62,97,72,37,30.04,29.93,3,0,8,0.00
2013-9-4,90,75,62,70,65,61,97,74,46,30.14,30.03,4,0,9,0.00
2013-9-5,93,75,62,70,65,61,96,74,40,30.17,30.10,3,0,6,0.00
2013-9-6,93,77,65,70,66,58,95,72,31,30.16,30.05,3,0,6,0.00
2013-9-7,98,79,65,71,66,-100,97,69,36,30.10,29.97,3,0,5,0.00
2013-9-8,100,83,67,73,70,66,97,69,35,30.01,29.90,1,0,4,0.00
2013-9-9,96,81,72,77,72,69,92,75,49,30.07,29.96,1,0,3,0.03
2013-9-10,100,82,71,75,72,69,96,74,39,30.15,30.04,2,0,8,0.03
2013-9-11,77,75,73,72,72,71,93,90,85,30.13,30.12,0,0,2,0.00
2013-9-12,96,86,74,73,71,69,91,63,43,30.08,29.94,2,0,6,0.25
2013-9-13,74,74,74,71,71,71,91,91,91,29.98,29.98,0,0,0,0.00
2013-9-15,91,72,51,61,56,50,97,64,27,30.11,30.06,2,0,5,0.00
2013-9-16,92,74,58,68,61,51,96,69,26,30.16,30.09,3,0,7,0.00
2013-9-17,94,77,65,69,66,63,96,72,39,30.17,30.04,3,0,5,0.00
2013-9-18,74,72,69,70,68,66,91,87,81,30.11,30.06,0,0,4,0.00
2013-9-19,95,80,67,73,68,65,97,72,41,30.11,29.97,2,0,7,0.00
2013-9-20,77,74,69,74,70,66,97,88,70,30.00,29.84,2,0,6,1.86
2013-9-21,80,68,58,69,58,-100,97,75,44,29.93,29.82,3,0,10,0.65
2013-9-22,79,64,52,57,54,51,97,73,43,29.97,29.88,4,1,9,0.01
2013-9-23,87,68,52,63,58,51,97,75,40,29.98,29.88,3,0,7,0.00
2013-9-24,78,70,62,72,67,60,97,92,80,29.93,29.82,1,0,6,0.04
2013-9-25,85,75,68,72,68,66,97,83,54,29.86,29.79,1,0,6,0.01
2013-9-26,89,74,63,71,66,62,98,80,49,30.01,29.85,3,0,7,0.01
2013-9-27,88,73,62,69,64,61,98,78,46,30.10,30.01,2,0,4,0.00
2013-9-28,88,72,61,64,60,-100,95,69,42,30.15,30.03,2,0,5,0.00
2013-9-29,69,66,65,65,62,59,97,86,74,30.08,29.97,1,0,5,0.27
2013-9-30,78,69,65,71,66,64,98,93,78,30.00,29.94,1,0,4,0.40
2013-10-1,76,73,72,71,70,69,93,90,82,30.06,30.03,0,0,1,0.11
2013-10-2,87,75,67,71,68,66,97,81,55,30.12,30.03,1,0,4,0.02
2013-10-3,91,76,64,73,68,63,98,80,50,30.08,29.97,1,0,6,0.00
2013-10-4,88,76,68,75,71,67,97,86,63,30.08,29.99,1,0,6,0.00
2013-10-5,90,79,71,74,71,69,96,79,54,30.04,29.89,1,0,7,0.03
2013-10-6,75,63,56,72,55,47,95,77,47,30.01,29.89,2,0,7,0.85
2013-10-7,73,58,46,53,50,45,97,77,48,30.13,29.98,3,0,7,0.06
2013-10-8,75,59,47,56,51,46,97,77,45,30.17,30.07,5,1,10,0.00
2013-10-9,82,65,53,66,59,51,95,83,59,30.16,30.07,2,0,5,0.00
2013-10-10,84,67,57,64,60,56,97,81,46,30.12,30.03,2,0,5,0.00
2013-10-11,87,70,56,68,60,55,98,75,43,30.07,29.98,1,0,4,0.00
2013-10-12,78,65,57,69,61,-100,98,91,74,30.14,30.00,1,0,4,0.20
2013-10-13,81,68,61,67,63,56,98,83,59,30.28,30.14,3,0,8,0.01
2013-10-14,84,68,54,65,59,51,90,77,49,30.24,30.07,4,0,6,0.00
2013-10-15,73,69,66,67,65,63,96,86,76,30.08,29.97,1,0,5,0.27
2013-10-16,67,61,56,66,59,55,98,94,84,30.05,29.96,2,0,6,0.91
2013-10-17,71,59,49,58,54,48,96,84,51,30.04,29.97,2,0,6,0.03
2013-10-18,75,58,43,56,50,42,98,78,41,30.09,29.96,1,0,5,0.01
2013-10-19,62,52,41,55,47,-100,96,84,56,30.10,29.93,1,0,8,0.05
2013-10-20,72,51,37,48,42,36,98,77,38,30.14,30.01,1,0,5,0.01
2013-10-21,76,56,40,54,47,39,98,76,39,30.09,29.98,2,0,8,0.01
2013-10-22,70,58,50,53,48,41,94,74,36,30.09,29.92,2,0,7,0.05
2013-10-23,64,52,43,48,41,38,94,69,42,30.18,29.96,1,0,5,0.01
2013-10-24,67,51,41,49,42,35,96,75,46,30.39,30.12,1,0,8,0.00
2013-10-25,58,46,33,36,32,28,93,62,36,30.54,30.34,4,1,11,0.00
2013-10-26,65,49,34,49,39,-100,96,73,44,30.35,30.11,2,0,9,0.00
2013-10-27,70,59,50,59,54,47,95,86,66,30.12,30.03,1,0,4,0.00
2013-10-28,72,60,55,60,55,-100,96,86,60,30.24,30.08,1,0,4,0.00
2013-10-29,77,64,52,67,60,51,98,87,67,30.26,30.13,1,0,6,0.00
2013-10-30,76,68,59,67,63,58,97,85,72,30.20,29.99,2,0,8,0.00
2013-10-31,70,68,63,68,65,52,97,90,64,29.99,29.59,4,1,13,1.92
2013-11-1,74,60,47,55,50,46,98,73,39,29.91,29.77,5,0,9,0.05
2013-11-2,62,51,41,51,43,-100,96,77,50,30.22,29.91,2,0,8,0.01
2013-11-3,65,46,35,45,39,34,98,79,40,30.33,30.17,3,0,6,0.00
2013-11-4,68,54,41,50,45,39,95,74,45,30.31,30.20,2,0,6,0.00
2013-11-5,74,62,52,54,49,44,83,65,48,30.31,30.16,3,0,7,0.00
2013-11-6,63,58,46,60,52,43,96,82,67,30.25,30.05,1,0,7,0.34
2013-11-7,59,46,37,43,37,33,95,75,38,30.42,30.27,2,0,7,0.11
2013-11-8,68,46,31,43,37,30,98,74,30,30.41,30.23,3,0,5,0.01
2013-11-9,62,49,40,46,40,-100,93,74,46,30.31,30.21,1,0,5,0.01
2013-11-10,70,53,41,50,43,39,97,74,40,30.37,30.27,4,0,8,0.00
2013-11-11,74,53,36,49,42,35,97,72,34,30.32,30.17,2,0,6,0.00
2013-11-12,53,42,31,49,32,22,94,71,45,30.68,30.23,4,1,15,0.00
2013-11-13,52,37,27,27,24,21,93,63,30,30.73,30.46,3,0,9,0.00
2013-11-14,27,26,25,26,25,24,94,94,93,30.46,30.42,0,0,0,0.00
2013-11-19,53,45,34,32,30,28,88,57,38,30.32,30.18,5,1,11,0.00
2013-11-20,68,47,30,41,35,28,95,69,36,30.20,30.08,2,0,6,0.00
2013-11-21,69,59,49,59,52,41,96,80,63,30.22,30.12,3,1,9,0.63
2013-11-22,60,54,44,59,52,41,97,94,89,30.40,30.17,2,0,9,0.53
2013-11-23,47,41,30,41,31,-100,92,71,41,30.58,30.37,4,1,12,0.02
2013-11-24,38,30,23,20,18,15,74,60,41,30.66,30.44,6,2,15,0.02
2013-11-25,36,35,32,34,27,17,94,74,54,30.45,30.15,2,0,7,0.18
2013-11-26,36,36,36,35,35,34,95,95,94,30.16,30.06,1,0,4,0.24
2013-12-3,60,58,56,57,56,55,98,95,90,29.72,29.69,1,0,4,0.00
2013-12-4,75,68,58,64,62,57,98,84,67,29.84,29.70,5,1,14,0.00
2013-12-5,70,50,35,67,47,33,95,89,80,30.15,29.83,2,0,9,0.71
2013-12-6,35,31,26,33,29,24,94,93,91,30.45,30.08,4,1,12,1.61
2013-12-7,29,26,22,27,22,-100,93,90,88,30.58,30.33,4,1,12,0.01
2013-12-8,34,32,29,33,31,27,96,95,93,30.35,30.08,4,0,6,0.09
2013-12-9,34,32,31,32,30,29,96,90,84,30.32,30.16,4,0,8,0.04
2013-12-10,44,31,24,30,26,20,95,80,55,30.46,30.21,1,0,4,0.03
2013-12-11,24,23,23,23,22,22,95,95,95,30.43,30.40,0,0,0,0.03
2013-12-15,42,35,31,32,29,28,92,81,65,30.30,30.16,2,0,7,0.02
2013-12-16,59,44,31,40,35,29,94,74,47,30.24,30.14,4,1,13,0.01
2013-12-17,62,46,32,41,36,30,93,70,44,30.32,30.17,4,0,10,0.01
2013-12-18,62,43,27,38,32,26,96,69,32,30.37,30.14,2,0,6,0.00
2013-12-19,61,54,45,53,45,38,80,73,67,30.17,29.96,2,1,9,0.00
2013-12-20,67,64,59,65,60,53,94,86,77,30.00,29.83,3,1,13,0.21
2013-12-21,75,66,55,67,61,-100,96,85,71,29.83,29.49,6,2,14,1.29
2013-12-22,56,50,38,54,46,32,97,89,81,30.25,29.72,2,0,9,1.02
2013-12-23,40,34,26,32,28,24,92,77,61,30.52,30.25,2,0,7,0.01
2013-12-24,36,28,23,26,20,16,95,73,45,30.63,30.44,5,0,10,0.00
2013-12-25,53,34,20,32,24,18,93,70,35,30.45,30.32,3,0,6,0.00
2013-12-26,52,36,26,33,28,25,97,77,40,30.46,30.36,4,0,9,0.00
2013-12-27,59,38,24,32,28,23,96,71,33,30.49,30.38,1,0,2,0.00
2013-12-28,46,38,30,41,33,-100,95,85,72,30.37,29.99,1,0,5,0.08
2013-12-29,56,45,36,44,40,30,98,82,60,30.22,29.97,3,0,7,0.17
2013-12-30,36,32,30,31,26,24,83,79,76,30.37,30.21,2,0,9,0.01
2013-12-31,52,34,21,30,26,19,95,76,42,30.48,30.34,2,0,5,0.00
2014-1-1,57,41,25,44,32,23,96,74,42,30.33,29.97,2,0,6,0.03
2014-1-2,49,35,23,48,28,15,95,78,63,30.47,29.90,3,1,10,0.34